STARLINK-31606, 59571

Orbit data source: Space-Track

STARLINK-31606, 59571 is a payload satellite owned by SpaceX/Seattle (US) in LEO that was launched on Tue, 23 Apr 2024 UTC via an FALCON 9 launch vehicle from the Air Force Eastern Test Range (AFETR). Payload-class satellites include a variety of spacecraft equipped with specific instruments for various scientific and technological missions. These include communications satellites like Starlink; space stations such as the ISS; scientific satellites like the Hubble; Earth observation satellites from companies like Planet Labs, Umbra, and HawkEye 360; GPS; miniature CubeSats for education and research; and military/defense satellites.

Loading next visibility...
Identifier
59571, 2024-076H
Orbit
LEO
Country
Flag of USUS
Related business
Manufacturer
SpaceX/Seattle
Mission
Operational spacecraft
Bus & Motor
STARLINK V2M, Unknown motor
Mass
730 kg wet, ~700 kg dry
Launch date (UTC)
2024-04-23 (1 year ago)
Launch vehicle
FALCON 9
Launch site
Air Force Eastern Test Range (AFETR)
Object type
Payload
Rocket body
Debris
Shape & HBR
Unknown
Radar Cross Section
Large (>1 m²)

Expand to show TLE details & history
Last TLE update: 18 hours ago

TLE from 18 hours ago
0 STARLINK-31606
1 59571U 24076H   25257.58335648  .00050236  00000-0  18239-2 0  9990
2 59571  43.0006 283.1440 0001425 273.0257 110.1566 15.27557056  5875
Epoch: 2025-09-14T14:00Z
TLE epoch observation values (Epoch: 2025-09-14T14:00:01.999Z)
Latitude
15.62064°
Longitude
96.68275°
Altitude
482.538 km
Speed
7.627 km/s
True Right ascension
20h 01m 57s
True Declination
15° 31' 41"
Sunlit
Object was in full shadow at epoch
Visualization orbit readout
Latitude
Unknown
Longitude
Unknown
Altitude
Unknown
Speed
Unknown
Apparent Right ascension
Unknown
Apparent Declination
Unknown
Sunlit
N/A
Visualization observer readout
Local Sidereal Time
00:42:21
Azimuth
Unknown
Elevation
Unknown
Doppler factor
Unknown
Orbital elements
Apogee altitude
486.041 km
Perigee altitude
484.085 km
Semi-major axis
6,863.2 km
Eccentricity
0.00014
Inclination
43.0006°
RAAN
283.144°
Arg. of periapsis
273.0257°
True anomaly
110.17193°
Mean anomaly
110.1566°
Eccentric anomaly
110.16426°
Mean motion
3.81727 °/min
Orbital period
94.31 mins
BSTAR
0.0018239
Loading maneuver chart data...
Computing Atmospheric mass density...
Loading historical data...
Loading historical data...
Loading historical data...
Loading historical data...
Loading historical data...
Loading historical data...
Loading historical data...

Documentation

Showing up to 5 results
|